Time,TemperatureF,DewpointF,PressureIn,WindDirection,WindDirectionDegrees,WindSpeedMPH,WindSpeedGustMPH,Humidity,HourlyPrecipIn,Conditions,Clouds,dailyrainin,SolarRadiationWatts/m^2,SoftwareType,DateUTC
2013-02-17 00:01:00,29.0,25.0,-100.00,South,169,2.0,6.0,83,0.00,,,0.00,1.000000,,2013-02-17 08:01:00,
2013-02-17 00:32:00,34.0,24.0,-100.00,NW,314,8.0,11.0,67,0.00,,,0.00,1.000000,,2013-02-17 08:32:00,
2013-02-17 00:42:00,34.0,24.0,-100.00,NW,314,8.0,11.0,67,0.00,,,0.00,1.000000,,2013-02-17 08:42:00,
2013-02-17 00:52:00,34.0,24.0,-100.00,NW,314,8.0,11.0,67,0.00,,,0.00,1.000000,,2013-02-17 08:52:00,
2013-02-17 01:01:00,34.0,24.0,-100.00,NW,314,8.0,11.0,67,0.00,,,0.00,1.000000,,2013-02-17 09:01:00,
2013-02-17 01:32:00,32.0,22.0,-100.00,NE,39,4.0,10.0,67,0.00,,,-99.99,1.000000,,2013-02-17 09:32:00,
2013-02-17 01:42:00,32.0,22.0,-100.00,NE,39,4.0,10.0,67,0.00,,,-99.99,1.000000,,2013-02-17 09:42:00,
2013-02-17 01:52:00,32.0,22.0,-100.00,NE,39,4.0,10.0,67,0.00,,,-99.99,1.000000,,2013-02-17 09:52:00,
2013-02-17 02:01:00,32.0,22.0,-100.00,NE,39,4.0,10.0,67,0.00,,,-99.99,1.000000,,2013-02-17 10:01:00,
2013-02-17 02:32:00,35.0,23.0,-100.00,West,270,6.0,18.0,60,0.00,,,0.00,1.000000,,2013-02-17 10:32:00,
2013-02-17 02:42:00,35.0,23.0,-100.00,West,270,6.0,18.0,60,0.00,,,0.00,1.000000,,2013-02-17 10:42:00,
2013-02-17 02:52:00,35.0,23.0,-100.00,West,270,6.0,18.0,60,0.00,,,0.00,1.000000,,2013-02-17 10:52:00,
2013-02-17 03:01:00,35.0,23.0,-100.00,West,270,6.0,18.0,60,0.00,,,0.00,1.000000,,2013-02-17 11:01:00,
2013-02-17 03:32:00,34.0,23.0,-100.00,WNW,289,6.0,19.0,63,0.00,,,0.00,1.000000,,2013-02-17 11:32:00,
2013-02-17 03:42:00,34.0,23.0,-100.00,WNW,289,6.0,19.0,63,0.00,,,0.00,1.000000,,2013-02-17 11:42:00,
2013-02-17 03:52:00,34.0,23.0,-100.00,WNW,289,6.0,19.0,63,0.00,,,0.00,1.000000,,2013-02-17 11:52:00,
2013-02-17 04:02:00,34.0,23.0,-100.00,WNW,289,6.0,19.0,63,0.00,,,0.00,1.000000,,2013-02-17 12:02:00,
2013-02-17 04:32:00,33.0,22.0,-100.00,WNW,289,5.0,13.0,64,0.00,,,0.00,1.000000,,2013-02-17 12:32:00,
2013-02-17 04:42:00,33.0,22.0,-100.00,WNW,289,5.0,13.0,64,0.00,,,0.00,1.000000,,2013-02-17 12:42:00,
2013-02-17 04:52:00,33.0,22.0,-100.00,WNW,289,5.0,13.0,64,0.00,,,0.00,1.000000,,2013-02-17 12:52:00,
2013-02-17 05:02:00,33.0,22.0,-100.00,WNW,289,5.0,13.0,64,0.00,,,0.00,1.000000,,2013-02-17 13:02:00,
2013-02-17 06:32:00,29.0,22.0,-100.00,WSW,249,4.0,5.0,74,-99.99,,,0.00,1.000000,,2013-02-17 14:32:00,
2013-02-17 06:42:00,29.0,22.0,-100.00,WSW,249,4.0,5.0,74,-99.99,,,0.00,1.000000,,2013-02-17 14:42:00,
2013-02-17 06:53:00,29.0,22.0,-100.00,WSW,249,4.0,5.0,74,-99.99,,,0.00,1.000000,,2013-02-17 14:53:00,
2013-02-17 07:01:00,29.0,22.0,-100.00,WSW,249,4.0,5.0,74,-99.99,,,0.00,1.000000,,2013-02-17 15:01:00,
2013-02-17 07:32:00,26.0,22.0,-100.00,South,178,0.0,6.0,83,0.00,,,0.00,2.000000,,2013-02-17 15:32:00,
2013-02-17 07:42:00,26.0,22.0,-100.00,South,178,0.0,6.0,83,0.00,,,0.00,2.000000,,2013-02-17 15:42:00,
2013-02-17 07:52:00,26.0,22.0,-100.00,South,178,0.0,6.0,83,0.00,,,0.00,2.000000,,2013-02-17 15:52:00,
2013-02-17 08:01:00,26.0,22.0,-100.00,South,178,0.0,6.0,83,0.00,,,0.00,2.000000,,2013-02-17 16:01:00,
2013-02-17 08:32:00,33.0,26.0,-100.00,West,270,2.0,5.0,75,0.00,,,0.00,65.000000,,2013-02-17 16:32:00,
2013-02-17 08:42:00,33.0,26.0,-100.00,West,270,2.0,5.0,75,0.00,,,0.00,65.000000,,2013-02-17 16:42:00,
2013-02-17 08:52:00,33.0,26.0,-100.00,West,270,2.0,5.0,75,0.00,,,0.00,65.000000,,2013-02-17 16:52:00,
2013-02-17 09:02:00,33.0,26.0,-100.00,West,270,2.0,5.0,75,0.00,,,0.00,65.000000,,2013-02-17 17:02:00,
2013-02-17 09:32:00,39.0,24.0,-100.00,WNW,291,7.0,10.0,55,0.00,,,0.00,225.000000,,2013-02-17 17:32:00,
2013-02-17 09:42:00,39.0,24.0,-100.00,WNW,291,7.0,10.0,55,0.00,,,0.00,225.000000,,2013-02-17 17:42:00,
2013-02-17 09:52:00,39.0,24.0,-100.00,WNW,291,7.0,10.0,55,0.00,,,0.00,225.000000,,2013-02-17 17:52:00,
2013-02-17 10:01:00,39.0,24.0,-100.00,WNW,291,7.0,10.0,55,0.00,,,0.00,225.000000,,2013-02-17 18:01:00,
2013-02-17 10:33:00,41.0,23.0,-100.00,West,280,10.0,14.0,49,0.00,,,0.00,375.000000,,2013-02-17 18:33:00,
2013-02-17 10:42:00,41.0,23.0,-100.00,West,280,10.0,14.0,49,0.00,,,0.00,375.000000,,2013-02-17 18:42:00,
2013-02-17 10:52:00,41.0,23.0,-100.00,West,280,10.0,14.0,49,0.00,,,0.00,375.000000,,2013-02-17 18:52:00,
2013-02-17 11:01:00,41.0,23.0,-100.00,West,280,10.0,14.0,49,0.00,,,0.00,375.000000,,2013-02-17 19:01:00,
2013-02-17 11:32:00,44.0,23.0,-100.00,WNW,284,9.0,15.0,43,0.00,,,0.00,493.000000,,2013-02-17 19:32:00,
2013-02-17 11:42:00,44.0,23.0,-100.00,WNW,284,9.0,15.0,43,0.00,,,0.00,493.000000,,2013-02-17 19:42:00,
2013-02-17 11:52:00,44.0,23.0,-100.00,WNW,284,9.0,15.0,43,0.00,,,0.00,493.000000,,2013-02-17 19:52:00,
2013-02-17 12:01:00,44.0,23.0,-100.00,WNW,284,9.0,15.0,43,0.00,,,0.00,493.000000,,2013-02-17 20:01:00,
2013-02-17 12:32:00,46.0,22.0,-100.00,WNW,286,6.0,14.0,39,0.00,,,0.00,566.000000,,2013-02-17 20:32:00,
2013-02-17 12:42:00,46.0,22.0,-100.00,WNW,286,6.0,14.0,39,0.00,,,0.00,566.000000,,2013-02-17 20:42:00,
2013-02-17 12:52:00,46.0,22.0,-100.00,WNW,286,6.0,14.0,39,0.00,,,0.00,566.000000,,2013-02-17 20:52:00,
2013-02-17 13:01:00,46.0,22.0,-100.00,WNW,286,6.0,14.0,39,0.00,,,0.00,566.000000,,2013-02-17 21:01:00,
2013-02-17 13:32:00,47.0,21.0,-100.00,SW,228,6.0,15.0,35,0.00,,,0.00,589.000000,,2013-02-17 21:32:00,
2013-02-17 13:42:00,47.0,21.0,-100.00,SW,228,6.0,15.0,35,0.00,,,0.00,589.000000,,2013-02-17 21:42:00,
2013-02-17 13:53:00,47.0,21.0,-100.00,SW,228,6.0,15.0,35,0.00,,,0.00,589.000000,,2013-02-17 21:53:00,
2013-02-17 14:01:00,47.0,21.0,-100.00,SW,228,6.0,15.0,35,0.00,,,0.00,589.000000,,2013-02-17 22:01:00,
2013-02-17 14:32:00,48.0,20.0,-100.00,SSW,208,4.0,16.0,33,0.00,,,0.00,452.000000,,2013-02-17 22:32:00,
2013-02-17 14:42:00,48.0,20.0,-100.00,SSW,208,4.0,16.0,33,0.00,,,0.00,452.000000,,2013-02-17 22:42:00,
2013-02-17 14:52:00,48.0,20.0,-100.00,SSW,208,4.0,16.0,33,0.00,,,0.00,452.000000,,2013-02-17 22:52:00,
2013-02-17 15:01:00,48.0,20.0,-100.00,SSW,208,4.0,16.0,33,0.00,,,0.00,452.000000,,2013-02-17 23:01:00,
2013-02-17 15:32:00,47.0,18.0,-100.00,WNW,294,3.0,10.0,31,0.00,,,0.00,400.000000,,2013-02-17 23:32:00,
2013-02-17 15:42:00,47.0,18.0,-100.00,WNW,294,3.0,10.0,31,0.00,,,0.00,400.000000,,2013-02-17 23:42:00,
2013-02-17 15:52:00,47.0,18.0,-100.00,WNW,294,3.0,10.0,31,0.00,,,0.00,400.000000,,2013-02-17 23:52:00,
2013-02-17 16:01:00,47.0,18.0,-100.00,WNW,294,3.0,10.0,31,0.00,,,0.00,400.000000,,2013-02-18 00:01:00,
2013-02-17 16:32:00,43.0,21.0,-100.00,North,6,10.0,15.0,41,0.00,,,0.00,285.000000,,2013-02-18 00:32:00,
2013-02-17 16:42:00,43.0,21.0,-100.00,North,6,10.0,15.0,41,0.00,,,0.00,285.000000,,2013-02-18 00:42:00,
2013-02-17 16:52:00,43.0,21.0,-100.00,North,6,10.0,15.0,41,0.00,,,0.00,285.000000,,2013-02-18 00:52:00,
2013-02-17 17:01:00,43.0,21.0,-100.00,North,6,10.0,15.0,41,0.00,,,0.00,285.000000,,2013-02-18 01:01:00,
2013-02-17 18:32:00,36.0,21.0,-100.00,ESE,116,3.0,13.0,53,-99.99,,,0.00,7.000000,,2013-02-18 02:32:00,
2013-02-17 18:42:00,36.0,21.0,-100.00,ESE,116,3.0,13.0,53,-99.99,,,0.00,7.000000,,2013-02-18 02:42:00,
2013-02-17 18:52:00,36.0,21.0,-100.00,ESE,116,3.0,13.0,53,-99.99,,,0.00,7.000000,,2013-02-18 02:52:00,
2013-02-17 19:01:00,36.0,21.0,-100.00,ESE,116,3.0,13.0,53,-99.99,,,0.00,7.000000,,2013-02-18 03:01:00,
2013-02-17 19:32:00,35.0,21.0,-100.00,East,101,4.0,7.0,56,0.00,,,0.00,1.000000,,2013-02-18 03:32:00,
2013-02-17 19:42:00,35.0,21.0,-100.00,East,101,4.0,7.0,56,0.00,,,0.00,1.000000,,2013-02-18 03:42:00,
2013-02-17 19:52:00,35.0,21.0,-100.00,East,101,4.0,7.0,56,0.00,,,0.00,1.000000,,2013-02-18 03:52:00,
2013-02-17 20:01:00,35.0,21.0,-100.00,East,101,4.0,7.0,56,0.00,,,0.00,1.000000,,2013-02-18 04:01:00,
2013-02-17 20:32:00,33.0,22.0,-100.00,SE,131,4.0,7.0,64,0.00,,,0.00,1.000000,,2013-02-18 04:32:00,
2013-02-17 20:42:00,33.0,22.0,-100.00,SE,131,4.0,7.0,64,0.00,,,0.00,1.000000,,2013-02-18 04:42:00,
2013-02-17 20:52:00,33.0,22.0,-100.00,SE,131,4.0,7.0,64,0.00,,,0.00,1.000000,,2013-02-18 04:52:00,
2013-02-17 21:01:00,33.0,22.0,-100.00,SE,131,4.0,7.0,64,0.00,,,0.00,1.000000,,2013-02-18 05:01:00,
2013-02-17 21:32:00,32.0,23.0,-100.00,SE,128,3.0,5.0,68,0.00,,,0.00,1.000000,,2013-02-18 05:32:00,
2013-02-17 21:42:00,32.0,23.0,-100.00,SE,128,3.0,5.0,68,0.00,,,0.00,1.000000,,2013-02-18 05:42:00,
2013-02-17 21:52:00,32.0,23.0,-100.00,SE,128,3.0,5.0,68,0.00,,,0.00,1.000000,,2013-02-18 05:52:00,
2013-02-17 22:02:00,32.0,23.0,-100.00,SE,128,3.0,5.0,68,0.00,,,0.00,1.000000,,2013-02-18 06:02:00,
2013-02-17 23:32:00,30.0,22.0,-100.00,East,96,5.0,7.0,72,-99.99,,,0.00,1.000000,,2013-02-18 07:32:00,
2013-02-17 23:42:00,30.0,22.0,-100.00,East,96,5.0,7.0,72,-99.99,,,0.00,1.000000,,2013-02-18 07:42:00,
2013-02-17 23:52:00,30.0,22.0,-100.00,East,96,5.0,7.0,72,-99.99,,,0.00,1.000000,,2013-02-18 07:52:00,